This is the latest recevied weather packets stored in our database for station/object YO6SAY-10. If no packets are shown the sender has not sent any weather packets the latest 10 day(s).
| Time | Temp. | Humidity | Pressure | Rain* | Wind** | Luminosity | Snow |
|---|---|---|---|---|---|---|---|
| 1777062413 | 13.33° C | 47% | 948 hPa | - | - | - | - |
| 1777061513 | 13.33° C | 47% | 947.9 hPa | - | - | - | - |
| 1777060613 | 13.33° C | 47% | 947.8 hPa | - | - | - | - |
| 1777059713 | 13.33° C | 47% | 947.6 hPa | - | - | - | - |
| 1777058812 | 13.33° C | 47% | 947.5 hPa | - | - | - | - |
| 1777057912 | 13.89° C | 46% | 947.3 hPa | - | - | - | - |
| 1777057012 | 13.89° C | 46% | 947.2 hPa | - | - | - | - |
| 1777056112 | 13.89° C | 45% | 947.1 hPa | - | - | - | - |
| 1777055212 | 14.44° C | 44% | 946.8 hPa | - | - | - | - |
| 1777054312 | 14.44° C | 44% | 946.7 hPa | - | - | - | - |
| 1777053411 | 15° C | 44% | 946.4 hPa | - | - | - | - |
| 1777052511 | 15.56° C | 42% | 946.2 hPa | - | - | - | - |
| 1777051611 | 16.11° C | 41% | 946 hPa | - | - | - | - |
| 1777050711 | 17.22° C | 41% | 945.8 hPa | - | - | - | - |
| 1777049811 | 17.78° C | 40% | 945.7 hPa | - | - | - | - |
| 1777048911 | 18.89° C | 39% | 945.4 hPa | - | - | - | - |
| 1777048011 | 19.44° C | 38% | 945.4 hPa | - | - | - | - |
| 1777047110 | 19.44° C | 37% | 945.4 hPa | - | - | - | - |
| 1777046210 | 17.78° C | 38% | 945.2 hPa | - | - | - | - |
| 1777045310 | 18.89° C | 37% | 945.3 hPa | - | - | - | - |
| 1777044410 | 20.56° C | 36% | 945.4 hPa | - | - | - | - |
| 1777043510 | 21.67° C | 35% | 945.3 hPa | - | - | - | - |
| 1777042610 | 19.44° C | 35% | 945.3 hPa | - | - | - | - |
| 1777041709 | 18.89° C | 35% | 945.3 hPa | - | - | - | - |
| 1777040809 | 17.22° C | 36% | 945.3 hPa | - | - | - | - |
* Rain since midnight (hover to see other rain measurements)
** Current wind speed in m/s (hover to see current wind gust speed)